CAPE
0 10 48 50 34 37 0 8 29 476 515 660 460 469 692 976 938 1328 1630 2306 2129 1918 2204 2286 2496 2459 2519 2358 2191 2194 2177 1909
0 0 0 0 5 1 1 0 517 580 501 683 185 317 1004 1063 949 1991 2235 2272 2271 2313 2331 2344 2449 2535 2361 2317 2077 1925 1757 1496
0 0 0 0 0 0 1 0 278 561 439 528 352 801 1092 1069 996 2030 2178 2181 2256 2275 2305 2305 2130 2155 1842 1823 1549 1324 778 474
0 0 0 0 0 0 0 0 6 268 338 660 793 913 1019 973 1001 1994 2133 2153 2131 2234 2234 1920 1537 1461 1105 887 530 147 12 0
0 0 0 0 0 0 0 9 19 60 108 611 713 915 1093 1307 1130 1998 1993 2068 2004 1972 1802 1305 919 649 0 0 0 0 0 0
0 0 0 0 12 2 0 0 0 41 89 196 19 283 625 1170 1440 1963 1924 1921 1802 1653 1250 713 14 0 0 0 0 1 0 0
0 0 0 0 3 11 8 0 0 10 111 65 30 44 147 165 874 1876 1886 1753 1590 1244 829 300 0 0 0 0 15 10 0 0
0 0 0 0 0 1 14 21 4 13 55 16 141 266 364 473 874 1039 1829 1621 1658 1109 583 44 0 0 0 0 12 0 0 0
0 0 0 1 81 72 120 85 13 29 51 364 300 270 606 680 1283 1012 1449 1338 1423 1106 771 17 10 4 0 0 38 22 0 0
0 0 0 56 166 154 222 219 161 125 254 418 554 502 511 487 1581 1531 1342 1389 1297 1190 652 35 18 0 0 2 67 67 0 0
0 0 27 171 101 127 104 233 308 340 395 641 776 930 976 848 1618 1560 1619 1461 1432 1074 533 183 61 4 29 24 88 81 0 0
324 174 13 163 112 46 147 367 328 389 325 273 408 553 524 1266 1576 1501 1282 1492 1536 1154 685 417 327 328 351 320 192 113 2 0
123 135 215 76 248 139 26 98 422 115 204 290 386 649 1100 1350 1763 1552 974 1429 1361 1044 844 551 533 601 694 781 619 199 58 27
260 227 175 319 95 364 284 444 602 349 306 127 172 182 350 1812 1727 1550 1564 1329 1022 840 708 743 740 769 853 830 383 144 131 52
40 335 324 299 194 290 368 818 832 550 618 206 170 784 1860 2032 1923 1620 1280 992 929 857 902 853 853 979 807 477 286 175 108 0
87 0 130 158 207 298 295 606 1042 1036 1089 1121 1462 1527 1740 2027 2001 1590 1303 1158 1013 995 975 1059 1015 819 227 174 149 6 0 0
65 123 46 71 59 275 463 456 246 475 1053 1683 1679 1641 1707 1620 1426 1338 1239 1166 1181 1067 948 796 284 52 0 0 0 0 0 0
3 98 73 44 10 225 75 193 512 495 1208 1615 1629 1607 1506 1194 1017 946 884 792 666 489 320 282 192 44 0 0 0 0 0 0
1 14 39 110 305 13 84 372 548 751 1264 1377 1238 1062 916 810 696 544 453 443 334 321 304 267 182 9 0 0 0 0 0 0
CIN
0 -77 -31 -15 -33 -6 0 -19 -20 -79 -118 -76 -80 -49 -76 -102 -55 -42 -129 -113 -120 -140 -108 -63 -32 -41 -29 -37 -38 -16 -9 -15
0 0 0 0 -7 -1 -1 0 -42 -48 -63 -114 -385 -136 -67 -97 -113 -147 -143 -116 -87 -76 -75 -65 -23 -33 -42 -41 -48 -38 -24 -23
0 0 0 0 0 0 -3 0 -47 -47 -48 -184 -250 -85 -89 -79 -96 -164 -144 -89 -64 -68 -103 -77 -30 -50 -62 -74 -72 -71 -131 -151
0 0 0 0 0 0 0 0 -5 -38 -33 -121 -90 -89 -106 -76 -92 -99 -106 -88 -105 -81 -67 -46 -70 -83 -107 -145 -193 -264 -13 0
0 0 0 0 0 0 0 -12 -56 -18 -62 -67 -65 -90 -69 -83 -114 -78 -101 -86 -93 -96 -96 -108 -94 -72 0 0 0 0 0 0
0 0 0 -3 -31 -8 0 0 -5 -27 -216 -84 -80 -235 -172 -135 -195 -135 -106 -97 -87 -106 -110 -130 -87 0 0 0 0 -52 0 0
0 0 0 0 -9 -30 -30 0 0 -8 -67 -85 -65 -448 -720 -165 -299 -164 -112 -83 -46 -80 -119 -121 0 0 0 0 -81 -143 0 0
0 0 0 0 0 -38 -28 -77 -4 -16 -65 -53 -37 -41 -684 -83 -180 -130 -135 -112 -58 -57 -67 -111 0 0 0 0 -99 -26 0 0
0 0 0 -1 -142 -81 -159 -140 -69 -133 -63 -70 -55 -68 -131 -452 -328 -169 -140 -127 -69 -63 -80 -120 -72 -52 0 0 -71 -126 0 0
0 0 0 -63 -148 -179 -81 -82 -43 -55 -42 -44 -53 -47 -180 -326 -183 -122 -129 -64 -47 -61 -87 -85 -71 0 0 -56 -79 -104 0 0
0 0 -52 -121 -42 -33 -39 -71 -48 -45 -52 -46 -45 -59 -63 -75 -159 -102 -52 -24 -42 -72 -108 -430 -353 -74 -76 -76 -76 -79 0 0
-80 -33 -44 -167 -209 -305 -97 -95 -72 -60 -73 -51 -65 -66 -99 -56 -40 -53 -49 -22 -23 -59 -55 -52 -61 -53 -39 -153 -78 -47 -145 -9
-53 -49 -100 -99 -215 -268 -15 -130 -120 -260 -160 -335 -188 -81 -86 -107 -104 -68 -21 -14 -22 -48 -36 -90 -163 -145 -106 -82 -82 -33 -64 -97
-184 -105 -73 -258 -181 -143 -191 -173 -71 -183 -219 -105 -444 -180 -307 -102 -62 -69 -38 -39 -51 -42 -142 -144 -120 -95 -55 -59 -73 -39 -34 -40
-333 -233 -279 -260 -362 -263 -65 -24 -24 -36 -51 -88 -122 -81 -33 -49 -21 -31 -28 -28 -34 -99 -118 -100 -64 -44 -39 -52 -26 -27 -30 0
-272 -61 -131 -266 -258 -55 -438 -63 -29 -38 -36 -39 -55 -76 -69 -30 -16 -21 -21 -14 -21 -39 -29 -31 -33 -18 -36 -27 -22 -10 0 0
-251 -256 -269 -159 -172 -460 -340 -239 -80 -40 -26 -57 -56 -52 -40 -35 -61 -85 -83 -68 -61 -50 -36 -18 -34 -58 -1 0 0 0 0 0
-39 -94 -114 -42 -77 -230 -155 -14 -242 -34 -38 -67 -59 -37 -34 -74 -80 -86 -73 -65 -61 -71 -79 -55 -46 -139 0 0 0 0 0 0
-159 -129 -48 -78 -53 -492 -289 -16 -245 -21 -54 -53 -67 -92 -79 -67 -75 -78 -79 -110 -89 -69 -57 -57 -74 -224 0 0 0 0 0 0
Wind_Speed
nan nan nan nan nan nan nan nan nan 17 16 17 15 5 18 31 30 30 29 27 27 23 8 6 7 7 6 7 9 12 14 15
nan nan nan nan nan nan nan nan 19 15 17 19 24 20 16 25 26 31 34 24 23 20 19 9 9 9 7 9 11 16 17 16
nan nan nan nan nan nan nan nan 19 21 16 25 27 26 35 40 40 36 31 25 20 20 19 15 14 14 11 13 17 20 19 17
nan nan nan nan nan nan nan nan nan 18 11 23 27 37 29 22 15 8 20 21 16 18 19 17 15 15 16 18 19 21 nan nan
nan nan nan nan nan nan nan nan nan nan 13 25 17 20 26 30 17 17 18 19 18 19 21 19 18 18 nan nan nan nan nan nan
nan nan nan nan nan nan nan nan nan nan nan 14 nan 24 26 26 19 27 20 24 22 18 20 20 nan nan nan nan nan nan nan nan
nan nan nan nan nan nan nan nan nan nan 28 nan nan nan 20 13 28 35 22 18 21 18 21 23 nan nan nan nan nan nan nan nan
nan nan nan nan nan nan nan nan nan nan nan nan 19 17 8 11 25 25 28 21 22 22 24 nan nan nan nan nan nan nan nan nan
nan nan nan nan nan nan 34 nan nan nan nan 29 24 22 21 21 11 20 28 30 32 29 24 nan nan nan nan nan nan nan nan nan
nan nan nan nan 28 26 36 44 28 35 40 37 30 26 22 13 26 31 26 32 38 34 26 nan nan nan nan nan nan nan nan nan
nan nan nan 32 26 24 23 26 18 35 38 35 35 37 23 27 26 30 32 30 31 29 30 28 nan nan nan nan nan nan nan nan
24 31 nan 35 31 nan 22 29 30 32 36 27 32 38 32 31 27 19 17 24 29 28 30 33 32 34 29 28 28 29 nan nan
31 26 37 nan 34 28 nan nan 30 30 33 32 38 38 41 37 53 41 39 28 29 31 32 28 30 35 32 29 28 29 nan nan
39 32 37 38 nan 39 30 28 31 39 38 35 33 37 42 51 45 47 45 39 39 36 32 30 34 34 34 32 33 34 33 nan
nan 38 38 41 37 43 47 40 44 43 37 44 49 43 43 34 40 47 41 41 37 37 37 35 34 34 36 32 35 36 35 nan
nan nan 49 47 42 46 54 50 42 51 17 34 35 38 33 31 35 38 39 41 43 43 39 37 36 37 35 36 37 nan nan nan
nan 28 nan nan nan 25 31 37 45 54 9 30 25 28 28 28 30 30 33 35 39 40 40 39 39 nan nan nan nan nan nan nan
nan nan nan nan nan 34 nan 30 43 20 10 16 26 29 32 34 34 34 36 37 37 37 38 37 39 nan nan nan nan nan nan nan
nan nan nan 10 16 nan nan 24 8 2 11 27 29 38 37 37 35 38 39 40 40 37 34 36 39 nan nan nan nan nan nan nan
Wind_Direction
nan nan nan nan nan nan nan nan nan 296 309 295 268 357 327 332 343 330 319 319 328 333 310 321 314 309 310 301 296 302 307 302
nan nan nan nan nan nan nan nan 256 288 317 342 353 24 340 352 330 338 321 316 320 325 309 284 268 271 291 292 292 289 283 285
nan nan nan nan nan nan nan nan 271 298 335 340 353 341 339 333 316 319 317 311 320 318 312 290 259 272 270 281 283 281 286 292
nan nan nan nan nan nan nan nan nan 282 326 309 327 331 340 358 340 313 324 325 316 314 295 288 266 257 274 282 285 291 nan nan
nan nan nan nan nan nan nan nan nan nan 309 312 318 341 335 345 338 327 321 322 317 304 295 284 275 272 nan nan nan nan nan nan
nan nan nan nan nan nan nan nan nan nan nan 312 nan 344 319 328 335 320 310 324 329 318 306 295 nan nan nan nan nan nan nan nan
nan nan nan nan nan nan nan nan nan nan 299 nan nan nan 331 319 317 316 315 331 322 329 301 286 nan nan nan nan nan nan nan nan
nan nan nan nan nan nan nan nan nan nan nan nan 287 273 343 338 312 319 332 330 325 325 303 nan nan nan nan nan nan nan nan nan
nan nan nan nan nan nan 239 nan nan nan nan 267 273 313 332 313 352 344 337 343 338 324 313 nan nan nan nan nan nan nan nan nan
nan nan nan nan 226 252 250 242 211 258 278 299 301 305 301 276 319 326 319 325 331 314 315 nan nan nan nan nan nan nan nan nan
nan nan nan 222 224 226 224 269 232 267 268 273 289 277 275 303 306 311 306 323 321 322 312 306 nan nan nan nan nan nan nan nan
241 228 nan 213 210 nan 245 237 266 266 277 275 286 295 300 300 333 287 293 301 308 307 298 296 297 301 303 298 302 305 nan nan
240 233 218 nan 203 224 nan nan 249 260 273 277 280 292 292 292 295 302 308 311 305 292 290 294 294 295 297 299 302 300 nan nan
241 236 225 217 nan 242 248 244 247 256 259 269 280 276 269 282 287 289 285 289 288 285 285 286 282 280 286 291 291 295 291 nan
nan 243 234 225 223 230 240 243 247 261 260 266 261 259 264 272 257 272 287 285 288 295 292 283 283 284 288 287 287 290 286 nan
nan nan 236 234 232 236 238 251 238 248 286 283 275 281 276 301 282 287 287 290 286 288 290 293 296 296 294 291 289 nan nan nan
nan 245 nan nan nan 262 268 245 228 230 126 295 304 287 288 289 283 277 278 282 296 301 299 300 297 nan nan nan nan nan nan nan
nan nan nan nan nan 269 nan 224 241 224 146 281 292 289 286 283 284 286 287 284 287 290 291 294 293 nan nan nan nan nan nan nan
nan nan nan 273 291 nan nan 11 69 53 293 274 281 287 286 286 285 286 287 290 292 294 292 292 290 nan nan nan nan nan nan nan